Tracking 19245 objects as of 21-Aug-2018
HD Live streaming from Space Station
objects crossing your sky now

DIADEME 2

Track DIADEME 2 now!
10-day predictions
DIADEME 2 is classified as:


NORAD ID: 2680
Int'l Code: 1967-014A
Perigee: 588.4 km
Apogee: 1,660.0 km
Inclination: 39.4 °
Period: 107.6 minutes
Semi major axis: 7495 km
RCS: 0.6374 m2 (medium)
Launch date: February 15, 1967
Source: France (FR)
Launch site: HAMMA GUIRA SPACE TRACK RANGE (HGSTR)
aabbcc
Your satellite tracking list
Your tracking list is empty




NASA's NSSDC Master Catalog

Two Line Element Set (TLE):
1 02680U 67014A   18232.24222883  .00000096  00000-0  75660-4 0  9994
2 02680  39.4397 167.8904 0714840   3.1593 357.3333 13.37912135493269
Source of the keplerian elements: AFSPC